N5CSU Weather Reports


time (UTC)temp
C
wind
direction
speed
KPH
gust
KPH
rain 1hr
cm
rain 24hr
cm
rain mn
cm
humidity
%
barometer
mb
20260902002805 34 202 0.0 0.0 0.00 0.00 0.00 48 1012.9
20260902002306 35 200 0.0 0.0 0.00 0.00 0.00 47 1013.0
20260902001800 35 195 0.0 0.0 0.00 0.00 0.00 47 1013.0
20260902001255 35 196 0.0 0.0 0.00 0.00 0.00 47 1013.1
20260902000755 35 193 0.0 0.0 0.00 0.00 0.00 46 1013.0
20260902000250 35 192 0.0 0.0 0.00 0.00 0.00 47 1013.1
20260901235750 35 190 0.0 0.0 0.00 0.00 0.00 47 1013.2
20260901235245 35 193 0.0 0.0 0.00 0.00 0.00 46 1013.2
20260901234744 35 178 0.0 0.0 0.00 0.00 0.00 46 1013.1
20260901234239 35 190 0.0 0.0 0.00 0.00 0.00 46 1013.2
20260901233733 35 187 0.0 0.0 0.00 0.00 0.00 45 1013.3
20260901233230 35 198 0.0 0.0 0.00 0.00 0.00 46 1013.3
20260901232724 35 190 0.0 0.0 0.00 0.00 0.00 45 1013.5
20260901232219 35 80 0.0 0.0 0.00 0.00 0.00 45 1013.5
20260901231716 35 200 0.0 0.0 0.00 0.00 0.00 45 1013.4
20260901231212 35 194 0.0 0.0 0.00 0.00 0.00 45 1013.4
20260901230707 35 191 0.0 0.0 0.00 0.00 0.00 45 1013.4
20260901230207 36 195 0.0 0.0 0.00 0.00 0.00 44 1013.2
20260901225702 36 193 0.0 0.0 0.00 0.00 0.00 44 1013.4
20260901225157 36 189 0.0 0.0 0.00 0.00 0.00 45 1013.5
20260901224653 36 184 0.0 0.0 0.00 0.00 0.00 44 1013.3
20260901224149 36 191 0.0 0.0 0.00 0.00 0.00 44 1013.4
20260901223644 36 189 0.0 0.0 0.00 0.00 0.00 43 1013.5
20260901223139 36 195 0.0 0.0 0.00 0.00 0.00 44 1013.5
20260901222635 36 199 0.0 0.0 0.00 0.00 0.00 44 1013.6
20260901222131 35 190 0.0 0.0 0.00 0.00 0.00 45 1013.5
20260901221627 36 88 0.0 0.0 0.00 0.00 0.00 45 1013.6
20260901221123 36 192 0.0 0.0 0.00 0.00 0.00 45 1013.7
20260901220621 36 192 0.0 0.0 0.00 0.00 0.00 43 1013.8
20260901220122 36 201 0.0 0.0 0.00 0.00 0.00 43 1013.5
20260901215620 36 191 0.0 0.0 0.00 0.00 0.00 44 1013.5
20260901215120 35 188 0.0 0.0 0.00 0.00 0.00 46 1013.7
20260901214618 35 190 0.0 0.0 0.00 0.00 0.00 45 1013.8
20260901214113 36 201 0.0 0.0 0.00 0.00 0.00 45 1013.6
20260901213612 36 195 0.0 0.0 0.00 0.00 0.00 45 1013.7
20260901213107 36 193 0.0 0.0 0.00 0.00 0.00 44 1014.0
20260901212607 36 184 0.0 0.0 0.00 0.00 0.00 44 1013.9
20260901212103 36 190 0.0 0.0 0.00 0.00 0.00 44 1014.0
20260901211558 36 182 0.0 0.0 0.00 0.00 0.00 44 1014.0
20260901211055 36 258 0.0 0.0 0.00 0.00 0.00 44 1013.9
20260901210549 36 178 0.0 0.0 0.00 0.00 0.00 44 1014.2
20260901210046 36 193 0.0 0.0 0.00 0.00 0.00 43 1014.1
20260901205542 36 198 0.0 0.0 0.00 0.00 0.00 42 1014.1
20260901205041 36 220 0.0 0.0 0.00 0.00 0.00 43 1014.0
20260901204538 36 183 0.0 0.0 0.00 0.00 0.00 43 1014.2
20260901204032 36 180 0.0 0.0 0.00 0.00 0.00 43 1014.1
20260901203526 36 208 0.0 0.0 0.00 0.00 0.00 42 1014.2
20260901203022 36 205 0.0 0.0 0.00 0.00 0.00 43 1014.2
20260901202516 37 337 0.0 0.0 0.00 0.00 0.00 43 1014.3
20260901202012 36 200 0.0 0.0 0.00 0.00 0.00 43 1014.3
20260901201508 36 242 0.0 0.0 0.00 0.00 0.00 45 1014.4
20260901201002 36 195 0.0 0.0 0.00 0.00 0.00 44 1014.4
20260901200456 36 183 0.0 0.0 0.00 0.00 0.00 43 1014.6
20260901195955 36 190 0.0 0.0 0.00 0.00 0.00 44 1014.6
20260901195454 37 275 0.0 1.6 0.00 0.00 0.00 44 1014.6
20260901194949 37 187 0.0 0.0 0.00 0.00 0.00 42 1014.7
20260901194444 37 193 0.0 0.0 0.00 0.00 0.00 43 1014.7
20260901193940 37 194 0.0 0.0 0.00 0.00 0.00 42 1014.7
20260901193439 37 222 0.0 1.6 0.00 0.00 0.00 41 1014.8
20260901192938 37 176 0.0 0.0 0.00 0.00 0.00 43 1014.9
20260901192435 37 282 0.0 0.0 0.00 0.00 0.00 42 1015.1
20260901191926 37 357 0.0 0.0 0.00 0.00 0.00 42 1015.0
20260901191421 37 194 0.0 0.0 0.00 0.00 0.00 42 1015.1
20260901190917 37 196 0.0 0.0 0.00 0.00 0.00 43 1015.2
20260901190417 37 222 0.0 0.0 0.00 0.00 0.00 42 1015.3
20260901185915 37 179 0.0 1.6 0.00 0.00 0.00 43 1015.3
20260901185414 37 191 0.0 0.0 0.00 0.00 0.00 42 1015.3
20260901184909 37 178 0.0 0.0 0.00 0.00 0.00 41 1015.5
20260901184404 36 179 0.0 0.0 0.00 0.00 0.00 42 1015.6
20260901183904 37 10 1.6 1.6 0.00 0.00 0.00 40 1015.6
20260901183404 37 198 0.0 0.0 0.00 0.00 0.00 42 1016.0
20260901182900 36 199 0.0 0.0 0.00 0.00 0.00 45 1016.1
20260901182355 36 177 0.0 0.0 0.00 0.00 0.00 44 1016.0
20260901181850 36 206 0.0 0.0 0.00 0.00 0.00 44 1016.3
20260901181345 36 201 0.0 0.0 0.00 0.00 0.00 45 1016.3
20260901180844 36 54 0.0 0.0 0.00 0.00 0.00 44 1016.4
20260901180343 36 188 0.0 0.0 0.00 0.00 0.00 46 1016.6
20260901175842 35 202 0.0 0.0 0.00 0.00 0.00 47 1016.7
20260901175337 35 207 0.0 0.0 0.00 0.00 0.00 47 1016.6
20260901174832 35 230 0.0 0.0 0.00 0.00 0.00 47 1016.8
20260901174328 36 219 0.0 0.0 0.00 0.00 0.00 46 1017.1
20260901173823 36 199 0.0 0.0 0.00 0.00 0.00 46 1016.9
20260901173318 36 212 0.0 0.0 0.00 0.00 0.00 46 1017.0
20260901172815 36 196 0.0 0.0 0.00 0.00 0.00 47 1017.2
20260901172314 36 198 0.0 0.0 0.00 0.00 0.00 47 1017.2
20260901171811 35 58 1.6 1.6 0.00 0.00 0.00 48 1017.1
20260901171310 36 214 0.0 0.0 0.00 0.00 0.00 47 1017.2
20260901170804 35 175 0.0 1.6 0.00 0.00 0.00 47 1017.0
20260901170259 35 72 0.0 0.0 0.00 0.00 0.00 50 1017.3
20260901165758 35 192 0.0 0.0 0.00 0.00 0.00 51 1017.3
20260901165253 34 229 0.0 0.0 0.00 0.00 0.00 50 1017.3
20260901164749 35 197 0.0 0.0 0.00 0.00 0.00 49 1017.5
20260901164245 36 207 0.0 0.0 0.00 0.00 0.00 47 1017.6
20260901163739 36 189 0.0 0.0 0.00 0.00 0.00 48 1017.6
20260901163239 36 204 0.0 0.0 0.00 0.00 0.00 47 1017.7
20260901162734 35 191 0.0 0.0 0.00 0.00 0.00 49 1017.6
20260901162233 35 200 0.0 0.0 0.00 0.00 0.00 50 1017.5
20260901161732 35 198 0.0 1.6 0.00 0.00 0.00 50 1017.8
20260901161227 35 204 0.0 0.0 0.00 0.00 0.00 50 1017.8
20260901160723 35 210 0.0 0.0 0.00 0.00 0.00 52 1017.6
20260901160218 34 220 0.0 1.6 0.00 0.00 0.00 53 1017.6
20260901155717 33 239 0.0 0.0 0.00 0.00 0.00 53 1017.5
20260901155213 33 187 1.6 1.6 0.00 0.00 0.00 55 1017.7
20260901154708 33 54 1.6 1.6 0.00 0.00 0.00 56 1017.6
20260901154203 33 210 0.0 0.0 0.00 0.00 0.00 56 1017.9
20260901153658 32 221 0.0 0.0 0.00 0.00 0.00 57 1017.7
20260901153157 32 186 0.0 0.0 0.00 0.00 0.00 58 1017.5
20260901152652 32 182 0.0 0.0 0.00 0.00 0.00 58 1017.6
20260901152150 32 201 0.0 0.0 0.00 0.00 0.00 59 1017.6
20260901151646 32 203 0.0 0.0 0.00 0.00 0.00 59 1017.6
20260901151140 32 208 0.0 0.0 0.00 0.00 0.00 60 1017.6
20260901150639 31 227 0.0 0.0 0.00 0.00 0.00 61 1017.7
20260901150137 31 197 0.0 0.0 0.00 0.00 0.00 62 1017.5
20260901145636 31 214 0.0 0.0 0.00 0.00 0.00 62 1017.8
20260901145135 31 198 0.0 0.0 0.00 0.00 0.00 63 1017.9
20260901144631 31 198 0.0 0.0 0.00 0.00 0.00 65 1017.8
20260901144126 30 196 0.0 0.0 0.00 0.00 0.00 65 1017.9
20260901143621 30 190 0.0 0.0 0.00 0.00 0.00 66 1017.9
20260901143118 30 186 0.0 0.0 0.00 0.00 0.00 66 1017.8
20260901142614 30 195 0.0 0.0 0.00 0.00 0.00 67 1017.9
20260901142113 30 185 0.0 0.0 0.00 0.00 0.00 67 1017.8
20260901141608 30 211 0.0 0.0 0.00 0.00 0.00 67 1017.9
20260901141103 30 203 0.0 0.0 0.00 0.00 0.00 68 1017.7
20260901140602 30 201 0.0 0.0 0.00 0.00 0.00 68 1017.6
20260901135600 29 193 0.0 0.0 0.00 0.00 0.00 70 1017.8
20260901135051 28 191 0.0 0.0 0.00 0.00 0.00 70 1017.8
20260901134546 28 213 0.0 0.0 0.00 0.00 0.00 70 1017.8
20260901134041 28 209 0.0 0.0 0.00 0.00 0.00 70 1017.9
20260901133540 28 191 0.0 0.0 0.00 0.00 0.00 71 1017.9
20260901133038 28 201 0.0 0.0 0.00 0.00 0.00 71 1018.0
20260901132533 28 201 0.0 0.0 0.00 0.00 0.00 72 1017.9
20260901132032 27 201 0.0 0.0 0.00 0.00 0.00 72 1017.8
20260901131526 27 201 0.0 0.0 0.00 0.00 0.00 73 1017.8
20260901131017 27 198 0.0 0.0 0.00 0.00 0.00 73 1017.6
20260901130516 27 198 0.0 0.0 0.00 0.00 0.00 73 1017.8
20260901130009 27 198 0.0 0.0 0.00 0.00 0.00 74 1017.8
20260901125508 26 196 0.0 0.0 0.00 0.00 0.00 75 1017.8
20260901125003 26 196 0.0 0.0 0.00 0.00 0.00 75 1017.5
20260901124458 26 203 0.0 0.0 0.00 0.00 0.00 76 1017.5
20260901123953 26 202 0.0 0.0 0.00 0.00 0.00 76 1017.3
20260901123448 26 202 0.0 0.0 0.00 0.00 0.00 77 1017.3
20260901122946 25 203 0.0 0.0 0.00 0.00 0.00 77 1017.3
20260901122445 25 203 0.0 0.0 0.00 0.00 0.00 77 1017.2
20260901121945 25 203 0.0 0.0 0.00 0.00 0.00 77 1017.2
20260901121439 25 203 0.0 0.0 0.00 0.00 0.00 77 1017.1
20260901120935 25 203 0.0 0.0 0.00 0.00 0.00 76 1017.0
20260901120429 26 203 0.0 0.0 0.00 0.00 0.00 76 1016.8
20260901115925 26 203 0.0 0.0 0.00 0.00 0.00 76 1016.8
20260901115424 26 203 0.0 0.0 0.00 0.00 0.00 75 1016.8
20260901114923 26 203 0.0 0.0 0.00 0.00 0.00 75 1016.7
20260901114418 26 203 0.0 0.0 0.00 0.00 0.00 75 1016.5
20260901113916 26 203 0.0 0.0 0.00 0.00 0.00 75 1016.7
20260901113416 26 203 0.0 0.0 0.00 0.00 0.00 74 1016.7
20260901112911 26 203 0.0 0.0 0.00 0.00 0.00 74 1016.7
20260901112406 26 203 0.0 0.0 0.00 0.00 0.00 74 1016.5
20260901111900 26 203 0.0 0.0 0.00 0.00 0.00 74 1016.6
20260901111358 26 203 0.0 0.0 0.00 0.00 0.00 73 1016.5
20260901110857 26 202 0.0 0.0 0.00 0.00 0.00 73 1016.6
20260901110353 26 203 0.0 0.0 0.00 0.00 0.00 73 1016.6
20260901105848 26 202 0.0 0.0 0.00 0.00 0.00 72 1016.6
20260901105343 26 202 0.0 0.0 0.00 0.00 0.00 72 1016.4
20260901104840 26 201 0.0 0.0 0.00 0.00 0.00 71 1016.5
20260901104335 26 201 0.0 0.0 0.00 0.00 0.00 71 1016.4
20260901103830 26 201 0.0 0.0 0.00 0.00 0.00 70 1016.4
20260901103324 27 201 0.0 0.0 0.00 0.00 0.00 70 1016.6
20260901102819 27 201 0.0 0.0 0.00 0.00 0.00 70 1016.5
20260901102314 27 200 0.0 0.0 0.00 0.00 0.00 69 1016.6
20260901101809 27 200 0.0 0.0 0.00 0.00 0.00 68 1016.5
20260901101304 27 199 0.0 0.0 0.00 0.00 0.00 68 1016.6
20260901100803 27 202 0.0 0.0 0.00 0.00 0.00 68 1016.6
20260901100257 27 199 0.0 0.0 0.00 0.00 0.00 68 1016.5
20260901095756 27 193 0.0 0.0 0.00 0.00 0.00 68 1016.6
20260901095253 27 199 0.0 0.0 0.00 0.00 0.00 67 1016.6
20260901094743 27 198 0.0 0.0 0.00 0.00 0.00 67 1016.6
20260901094238 27 208 0.0 0.0 0.00 0.00 0.00 67 1016.5
20260901093733 27 193 0.0 0.0 0.00 0.00 0.00 67 1016.6
20260901093232 27 201 0.0 0.0 0.00 0.00 0.00 67 1016.5
20260901092728 27 201 0.0 0.0 0.00 0.00 0.00 66 1016.6
20260901092224 27 201 0.0 0.0 0.00 0.00 0.00 66 1016.6
20260901091719 27 201 0.0 0.0 0.00 0.00 0.00 66 1016.5
20260901091214 27 199 0.0 0.0 0.00 0.00 0.00 66 1016.6
20260901090709 27 203 0.0 0.0 0.00 0.00 0.00 65 1016.6
20260901090204 27 204 0.0 0.0 0.00 0.00 0.00 65 1016.5
20260901085700 27 205 0.0 0.0 0.00 0.00 0.00 65 1016.4
20260901085155 28 199 0.0 0.0 0.00 0.00 0.00 65 1016.3
20260901084651 28 197 0.0 0.0 0.00 0.00 0.00 64 1016.1
20260901084147 28 193 0.0 0.0 0.00 0.00 0.00 64 1016.4
20260901083641 28 193 0.0 0.0 0.00 0.00 0.00 64 1016.3
20260901083140 28 202 0.0 0.0 0.00 0.00 0.00 63 1016.3
20260901082639 28 203 0.0 0.0 0.00 0.00 0.00 63 1016.1
20260901082135 28 200 0.0 0.0 0.00 0.00 0.00 62 1016.3
20260901081630 28 193 0.0 0.0 0.00 0.00 0.00 62 1016.5
20260901081125 28 201 0.0 0.0 0.00 0.00 0.00 61 1016.3
20260901080619 28 198 0.0 0.0 0.00 0.00 0.00 61 1016.4
20260901080119 29 197 0.0 0.0 0.00 0.00 0.00 60 1016.5
20260901075615 29 197 0.0 0.0 0.00 0.00 0.00 60 1016.1
20260901075114 29 203 0.0 0.0 0.00 0.00 0.00 60 1016.4
20260901074614 29 202 0.0 0.0 0.00 0.00 0.00 59 1016.4
20260901074113 29 198 0.0 0.0 0.00 0.00 0.00 59 1016.3
20260901073610 30 196 0.0 0.0 0.00 0.00 0.00 58 1016.3
20260901073105 30 201 0.0 0.0 0.00 0.00 0.00 58 1016.4
20260901072601 30 202 0.0 0.0 0.00 0.00 0.00 58 1016.3
20260901072055 30 208 0.0 0.0 0.00 0.00 0.00 58 1016.1
20260901071550 30 210 0.0 0.0 0.00 0.00 0.00 58 1016.1
20260901071049 30 210 0.0 0.0 0.00 0.00 0.00 57 1016.1
20260901070543 30 205 0.0 0.0 0.00 0.00 0.00 57 1016.1
20260901070039 30 199 0.0 0.0 0.00 0.00 0.00 56 1015.9
20260901065533 30 195 0.0 0.0 0.00 0.00 0.00 56 1016.0
20260901065028 30 196 0.0 0.0 0.00 0.00 0.00 55 1015.9
20260901064525 30 204 0.0 0.0 0.00 0.00 0.00 55 1016.1
20260901064021 30 191 0.0 0.0 0.00 0.00 0.00 55 1016.0
20260901063518 30 196 0.0 0.0 0.00 0.00 0.00 54 1015.7
20260901063013 30 198 0.0 0.0 0.00 0.00 0.00 54 1015.9
20260901062508 30 193 0.0 0.0 0.00 0.00 0.00 55 1015.9
20260901061959 31 192 0.0 0.0 0.00 0.00 0.00 54 1015.9
20260901061455 31 193 0.0 0.0 0.00 0.00 0.00 53 1015.8
20260901060954 30 191 0.0 0.0 0.00 0.00 0.00 53 1015.5
20260901060444 30 198 0.0 0.0 0.00 0.00 0.00 54 1015.6
20260901055944 30 200 0.0 0.0 0.00 0.00 0.00 53 1015.8
20260901055441 30 197 0.0 0.0 0.00 0.00 0.00 53 1015.6
20260901054937 30 214 0.0 1.6 0.00 0.00 0.00 53 1015.4
20260901054434 30 205 0.0 0.0 0.00 0.00 0.00 52 1015.4
20260901053930 31 191 0.0 0.0 0.00 0.00 0.00 51 1015.3
20260901053425 31 189 0.0 0.0 0.00 0.00 0.00 51 1015.2
20260901052920 31 188 0.0 0.0 0.00 0.00 0.00 51 1015.2
20260901052415 31 193 0.0 0.0 0.00 0.00 0.00 50 1015.4
20260901051913 31 187 0.0 0.0 0.00 0.00 0.00 50 1015.2
20260901051409 31 191 0.0 0.0 0.00 0.00 0.00 50 1015.3
20260901050904 31 197 0.0 0.0 0.00 0.00 0.00 51 1015.1
20260901050400 31 193 0.0 0.0 0.00 0.00 0.00 49 1015.0
20260901045859 31 196 0.0 0.0 0.00 0.00 0.00 50 1015.4
20260901045354 30 192 0.0 0.0 0.00 0.00 0.00 51 1015.0
20260901044849 30 198 0.0 0.0 0.00 0.00 0.00 54 1014.9
20260901044346 29 205 0.0 0.0 0.00 0.00 0.00 53 1014.7
20260901043842 28 195 0.0 0.0 0.00 0.00 0.00 55 1014.9
20260901043338 28 196 0.0 0.0 0.00 0.00 0.00 56 1015.1
20260901042836 28 204 0.0 0.0 0.00 0.00 0.00 56 1014.8
20260901042331 28 200 0.0 0.0 0.00 0.00 0.00 56 1014.9
20260901041826 28 201 0.0 0.0 0.00 0.00 0.00 56 1014.9
20260901041321 28 201 0.0 0.0 0.00 0.00 0.00 55 1014.9
20260901040816 28 200 0.0 0.0 0.00 0.00 0.00 55 1014.9
20260901040315 29 200 0.0 0.0 0.00 0.00 0.00 54 1014.8
20260901035814 29 202 0.0 0.0 0.00 0.00 0.00 54 1014.9
20260901035313 29 203 0.0 0.0 0.00 0.00 0.00 53 1014.8
20260901034812 30 202 0.0 0.0 0.00 0.00 0.00 53 1014.9
20260901034307 30 203 0.0 0.0 0.00 0.00 0.00 52 1014.8
20260901033802 30 205 0.0 0.0 0.00 0.00 0.00 52 1014.8
20260901033301 30 202 0.0 0.0 0.00 0.00 0.00 51 1014.8
20260901032800 30 197 0.0 0.0 0.00 0.00 0.00 50 1014.8
20260901032300 30 197 0.0 0.0 0.00 0.00 0.00 49 1014.8
20260901031755 31 201 0.0 0.0 0.00 0.00 0.00 48 1014.8
20260901031251 31 201 0.0 0.0 0.00 0.00 0.00 48 1014.9
20260901030751 31 201 0.0 0.0 0.00 0.00 0.00 47 1014.8
20260901030246 31 201 0.0 0.0 0.00 0.00 0.00 46 1014.6
20260901025745 31 201 0.0 0.0 0.00 0.00 0.00 47 1014.6
20260901025240 31 201 0.0 0.0 0.00 0.00 0.00 46 1014.4
20260901024735 32 202 0.0 0.0 0.00 0.00 0.00 45 1014.5
20260901024234 32 203 0.0 0.0 0.00 0.00 0.00 45 1014.4
20260901023732 32 199 0.0 0.0 0.00 0.00 0.00 45 1014.3
20260901023227 32 194 0.0 0.0 0.00 0.00 0.00 45 1014.3
20260901022723 32 199 0.0 0.0 0.00 0.00 0.00 44 1014.3
20260901022218 32 199 0.0 0.0 0.00 0.00 0.00 44 1014.1
20260901021713 32 200 0.0 0.0 0.00 0.00 0.00 44 1014.0
20260901021209 32 194 0.0 0.0 0.00 0.00 0.00 44 1013.9
20260901020704 32 196 0.0 0.0 0.00 0.00 0.00 43 1014.0
20260901020200 32 204 0.0 0.0 0.00 0.00 0.00 43 1013.9
20260901015655 32 200 0.0 0.0 0.00 0.00 0.00 43 1013.9
20260901015154 32 158 0.0 0.0 0.00 0.00 0.00 42 1014.0
20260901014649 33 203 0.0 0.0 0.00 0.00 0.00 42 1014.0
20260901014145 33 202 0.0 0.0 0.00 0.00 0.00 42 1013.9
20260901013640 33 205 0.0 0.0 0.00 0.00 0.00 42 1013.9
20260901013136 33 206 0.0 0.0 0.00 0.00 0.00 41 1013.9
20260901012631 33 203 0.0 0.0 0.00 0.00 0.00 41 1013.9
20260901012126 33 203 0.0 0.0 0.00 0.00 0.00 40 1013.8
20260901011622 33 203 0.0 0.0 0.00 0.00 0.00 40 1013.6
20260901011120 33 207 0.0 0.0 0.00 0.00 0.00 39 1013.6
20260901010615 34 206 0.0 0.0 0.00 0.00 0.00 39 1013.7
20260901010109 34 216 0.0 0.0 0.00 0.00 0.00 38 1013.7
20260901005604 34 225 0.0 0.0 0.00 0.00 0.00 38 1013.5
20260901005059 35 209 0.0 0.0 0.00 0.00 0.00 37 1013.5
20260901004558 35 195 0.0 0.0 0.00 0.00 0.00 37 1013.6
20260901004054 35 197 0.0 0.0 0.00 0.00 0.00 37 1013.6
20260901003549 35 197 0.0 0.0 0.00 0.00 0.00 36 1013.6